Flag for Russia Weather past 2 weeks in Penza, Russia

Now
25 °F

Snow. Ice fog.


Feels Like: 15 °F
Forecast: 20 / 31 °F
Wind: 10 mph from Southwest

Location: Saratov / Tsentralny

Current Time: Dec 18, 2014 at 10:00:10 PM

Latest Report: Dec 18, 2014 at 9:30 PM


Visibility: 2 mi

Pressure: 29.98 "Hg

Humidity: 100%

Dew point: 25 °F

Location of PenzaLocation

Historic Weather in Penza — Graph

°F

Penza temperature yesterday

Maximum temperature yesterday: 27 °F (at 12:00 PM)
Minimum temperature yesterday: 21 °F (at 12:00 AM)
Average temperature yesterday: 24 °F

Past Weeks' High & Low Weather Summary

 TemperatureHumidityPressure
High52 °F (Dec 8, 7:00 PM)100% (Dec 12, 1:00 AM)30.63 "Hg (Dec 12, 1:00 AM)
Low5 °F (Dec 8, 8:00 AM)15% (Dec 8, 7:00 PM)29.98 "Hg (Dec 4, 10:00 PM)
Average24 °F85%30.29 "Hg
* Reported Dec 3 9:00 PM — Dec 18 9:00 PM, Penza, Weather by CustomWeather, © 2014

Note: Actual official high and low records may vary slightly from our data, if they occured in-between our weather recording intervals... More about our weather records

Advertising

Penza weather history for previous 24 hours

 ConditionsComfort  
Time TempWeatherWind HumidityBarometerVisibility
9:00 PM
Dec 18
25 °FSnow. Ice fog.10 mph100%29.98 "Hg1 mi
8:30 PM25 °FSnow. Ice fog.10 mph100%29.98 "Hg1 mi
8:00 PM25 °FSnow. Ice fog.10 mph100%29.98 "Hg1 mi
7:30 PM25 °FSnow. Ice fog.13 mph100%30.01 "Hg1 mi
7:00 PM25 °FSnow. Ice fog.13 mph100%30.01 "Hg1 mi
6:30 PM25 °FFreezing rain. Ice fog.13 mph100%30.04 "Hg1 mi
6:00 PM25 °FFreezing rain. Low clouds.13 mph100%30.04 "Hg1 mi
5:30 PM23 °FLight freezing rain. Ice fog.13 mph100%30.04 "Hg1 mi
5:00 PM23 °FLight freezing rain. Ice fog.10 mph100%30.04 "Hg0 mi
4:30 PM23 °FLight freezing rain. Ice fog.10 mph100%30.04 "Hg0 mi
4:00 PM23 °FLight freezing rain. Ice fog.10 mph100%30.04 "Hg0 mi
3:30 PM23 °FIce fog.10 mph100%30.04 "Hg0 mi
3:00 PM23 °FIce fog.13 mph100%30.04 "Hg0 mi
2:30 PM23 °FIce fog.13 mph100%30.04 "Hg0 mi
2:00 PM23 °FIce fog.13 mph100%30.04 "Hg0 mi
1:30 PM21 °FIce fog.8 mph100%30.04 "Hg1 mi
1:00 PM21 °FIce fog.8 mph100%30.04 "Hg1 mi
12:30 PM21 °FIce fog.10 mph93%30.04 "Hg1 mi
12:00 PM21 °FIce fog.10 mph93%30.04 "Hg1 mi
11:30 AM21 °FIce fog.10 mph93%30.04 "Hg1 mi
11:00 AM21 °FIce fog.10 mph93%30.04 "Hg1 mi
10:30 AM19 °FIce fog.10 mph100%30.04 "Hg1 mi
10:00 AM19 °FIce fog.10 mph100%30.04 "Hg1 mi
9:30 AM19 °FIce fog.10 mph100%30.07 "Hg1 mi
9:00 AM19 °FIce fog.10 mph100%30.07 "Hg1 mi
8:30 AM19 °FIce fog.10 mph93%30.07 "Hg1 mi
8:00 AM19 °FIce fog.10 mph93%30.07 "Hg0 mi
7:30 AM19 °FIce fog.15 mph93%30.07 "Hg1 mi
6:30 AM19 °FLow clouds.15 mph93%30.09 "HgN/A
5:30 AM19 °FLow clouds.15 mph100%30.09 "HgN/A
5:00 AM19 °FLow clouds.15 mph100%30.09 "Hg4 mi
4:30 AM19 °FIce fog.15 mph100%30.12 "Hg1 mi
4:00 AM19 °FIce fog.15 mph100%30.12 "Hg1 mi
3:30 AM21 °FIce fog.10 mph100%30.15 "Hg1 mi
3:00 AM21 °FIce fog.15 mph100%30.15 "Hg0 mi
2:30 AM23 °FIce fog.15 mph100%30.18 "Hg0 mi
2:00 AM23 °FIce fog.13 mph100%30.18 "Hg0 mi
1:30 AM23 °FIce fog.13 mph100%30.18 "Hg0 mi
1:00 AM23 °FIce fog.13 mph100%30.18 "Hg0 mi
12:30 AM23 °FIce fog.13 mph100%30.18 "Hg1 mi
12:00 AM23 °FIce fog.15 mph100%30.18 "Hg1 mi
11:30 PM
Dec 17
23 °FIce fog.13 mph100%30.21 "Hg1 mi
11:00 PM23 °FIce fog.15 mph100%30.21 "Hg0 mi
10:30 PM23 °FLight freezing rain. Ice fog.15 mph100%30.21 "Hg0 mi
10:00 PM23 °FLight freezing rain. Ice fog.13 mph100%30.21 "Hg0 mi
Weather by CustomWeather, © 2014

See weather overviewHow to use our weather pages